Hourly Weather Kadur

Today, 9 March, Tuesday

Time Temperature Precipitation Wind Pressure Humidity
00:00 +24°C° 0 mm 2 mps 694 mmHg 31%
01:00 +24°C° 0 mm 2 mps 693 mmHg 37%
02:00 +23°C° 0 mm 2 mps 693 mmHg 43%
03:00 +23°C° 0 mm 2 mps 693 mmHg 50%
04:00 +21°C° 0 mm 2 mps 693 mmHg 58%
05:00 +22°C° 0 mm 1 mps 693 mmHg 67%
06:00 +23°C° 0 mm 2 mps 693 mmHg 64%
07:00 +24°C° 0 mm 2 mps 694 mmHg 61%
08:00 +26°C° 0 mm 3 mps 695 mmHg 58%
09:00 +28°C° 0 mm 4 mps 695 mmHg 44%
10:00 +32°C° 0 mm 4 mps 696 mmHg 31%
11:00 +34°C° 0 mm 5 mps 696 mmHg 18%
12:00 +35°C° 0 mm 5 mps 695 mmHg 15%
13:00 +36°C° 0 mm 5 mps 694 mmHg 12%
14:00 +37°C° 0 mm 5 mps 693 mmHg 10%
15:00 +36°C° 0 mm 4 mps 693 mmHg 9%
16:00 +36°C° 0 mm 4 mps 693 mmHg 9%
17:00 +35°C° 0 mm 4 mps 693 mmHg 9%
18:00 +33°C° 0 mm 3 mps 693 mmHg 10%
19:00 +30°C° 0 mm 3 mps 694 mmHg 12%
20:00 +27°C° 0 mm 2 mps 694 mmHg 14%
21:00 +26°C° 0 mm 2 mps 694 mmHg 17%
22:00 +25°C° 0 mm 2 mps 694 mmHg 19%
23:00 +24°C° 0 mm 2 mps 694 mmHg 22%

Tomorrow, 10 March, Wednesday

Time Temperature Precipitation Wind Pressure Humidity
00:00 +24°C° 0 mm 2 mps 694 mmHg 32%
01:00 +22°C° 0 mm 3 mps 693 mmHg 41%
02:00 +22°C° 0 mm 3 mps 693 mmHg 50%
03:00 +21°C° 0 mm 3 mps 693 mmHg 59%
04:00 +21°C° 0 mm 3 mps 693 mmHg 67%
05:00 +21°C° 0 mm 2 mps 693 mmHg 75%
06:00 +22°C° 0 mm 3 mps 694 mmHg 68%
07:00 +25°C° 0 mm 3 mps 695 mmHg 62%
08:00 +26°C° 0 mm 3 mps 695 mmHg 55%
09:00 +29°C° 0 mm 3 mps 695 mmHg 43%
10:00 +31°C° 0 mm 3 mps 696 mmHg 31%
11:00 +35°C° 0 mm 3 mps 696 mmHg 18%
12:00 +35°C° 0 mm 4 mps 695 mmHg 17%
13:00 +36°C° 0 mm 4 mps 694 mmHg 15%
14:00 +37°C° 0 mm 4 mps 693 mmHg 13%
15:00 +37°C° 0 mm 4 mps 693 mmHg 13%
16:00 +36°C° 0 mm 4 mps 693 mmHg 13%
17:00 +36°C° 0 mm 4 mps 692 mmHg 13%
18:00 +34°C° 0 mm 4 mps 693 mmHg 15%
19:00 +31°C° 0 mm 3 mps 693 mmHg 18%
20:00 +28°C° 0 mm 3 mps 693 mmHg 20%
21:00 +27°C° 0 mm 2 mps 693 mmHg 24%
22:00 +26°C° 0 mm 2 mps 694 mmHg 27%
23:00 +25°C° 0 mm 2 mps 694 mmHg 31%

Day after tomorrow, 11 March, Thursday

Time Temperature Precipitation Wind Pressure Humidity
00:00 +25°C° 0 mm 2 mps 693 mmHg 34%
01:00 +24°C° 0 mm 2 mps 693 mmHg 37%
02:00 +24°C° 0 mm 2 mps 692 mmHg 40%
03:00 +23°C° 0 mm 2 mps 692 mmHg 47%
04:00 +23°C° 0 mm 2 mps 692 mmHg 54%
05:00 +22°C° 0 mm 1 mps 692 mmHg 61%
06:00 +24°C° 0 mm 2 mps 693 mmHg 58%
07:00 +25°C° 0 mm 2 mps 694 mmHg 56%
08:00 +26°C° 0 mm 2 mps 695 mmHg 54%
09:00 +29°C° 0 mm 3 mps 695 mmHg 42%
10:00 +31°C° 0 mm 3 mps 695 mmHg 30%
11:00 +35°C° 0 mm 4 mps 695 mmHg 18%
12:00 +35°C° 0 mm 4 mps 694 mmHg 16%
13:00 +36°C° 0 mm 4 mps 694 mmHg 15%
14:00 +37°C° 0 mm 4 mps 693 mmHg 13%
15:00 +37°C° 0 mm 4 mps 693 mmHg 12%
16:00 +36°C° 0 mm 4 mps 693 mmHg 12%
17:00 +36°C° 0 mm 4 mps 692 mmHg 11%
18:00 +33°C° 0 mm 4 mps 693 mmHg 17%
19:00 +30°C° 0 mm 3 mps 693 mmHg 23%
20:00 +27°C° 0 mm 2 mps 693 mmHg 29%
21:00 +26°C° 0 mm 2 mps 693 mmHg 43%
22:00 +25°C° 0 mm 2 mps 694 mmHg 56%
23:00 +23°C° 0 mm 1 mps 694 mmHg 70%

12 March, Friday

Time Temperature Precipitation Wind Pressure Humidity
00:00 +23°C° 0 mm 1 mps 693 mmHg 69%
01:00 +23°C° 0 mm 1 mps 693 mmHg 67%
02:00 +21°C° 0 mm 0 mps 693 mmHg 65%
03:00 +23°C° 0 mm 1 mps 693 mmHg 64%
04:00 +23°C° 0 mm 1 mps 693 mmHg 64%
05:00 +22°C° 0 mm 1 mps 693 mmHg 63%
06:00 +24°C° 0 mm 2 mps 693 mmHg 59%
07:00 +25°C° 0 mm 2 mps 694 mmHg 55%
08:00 +27°C° 0 mm 2 mps 695 mmHg 51%
09:00 +29°C° 0 mm 3 mps 695 mmHg 40%
10:00 +31°C° 0 mm 3 mps 696 mmHg 29%
11:00 +34°C° 0 mm 3 mps 696 mmHg 19%
12:00 +35°C° 0 mm 4 mps 695 mmHg 17%
13:00 +36°C° 0 mm 4 mps 694 mmHg 15%
14:00 +37°C° 0 mm 4 mps 693 mmHg 13%
15:00 +36°C° 0 mm 4 mps 693 mmHg 12%
16:00 +36°C° 0 mm 5 mps 693 mmHg 11%
17:00 +35°C° 0 mm 5 mps 693 mmHg 11%
18:00 +33°C° 0 mm 4 mps 693 mmHg 13%
19:00 +30°C° 0 mm 4 mps 693 mmHg 15%
20:00 +28°C° 0 mm 3 mps 694 mmHg 18%
21:00 +27°C° 0 mm 3 mps 694 mmHg 21%
22:00 +26°C° 0 mm 3 mps 694 mmHg 25%
23:00 +25°C° 0 mm 2 mps 694 mmHg 28%

13 March, Saturday

Time Temperature Precipitation Wind Pressure Humidity
00:00 +25°C° 0 mm 2 mps 694 mmHg 32%
01:00 +24°C° 0 mm 2 mps 693 mmHg 36%
02:00 +23°C° 0 mm 2 mps 693 mmHg 40%
03:00 +23°C° 0 mm 2 mps 693 mmHg 43%
04:00 +21°C° 0 mm 2 mps 693 mmHg 47%
05:00 +21°C° 0 mm 2 mps 693 mmHg 50%
06:00 +23°C° 0 mm 2 mps 694 mmHg 48%
07:00 +25°C° 0 mm 2 mps 694 mmHg 46%
08:00 +26°C° 0 mm 3 mps 695 mmHg 44%
09:00 +29°C° 0 mm 3 mps 696 mmHg 34%
10:00 +31°C° 0 mm 3 mps 696 mmHg 25%
11:00 +34°C° 0 mm 3 mps 696 mmHg 15%
12:00 +35°C° 0 mm 4 mps 695 mmHg 14%
13:00 +36°C° 0 mm 4 mps 694 mmHg 12%
14:00 +37°C° 0 mm 5 mps 694 mmHg 10%
15:00 +37°C° 0 mm 4 mps 693 mmHg 10%
16:00 +36°C° 0 mm 4 mps 693 mmHg 9%
17:00 +36°C° 0 mm 4 mps 693 mmHg 9%
18:00 +33°C° 0 mm 4 mps 693 mmHg 12%
19:00 +29°C° 0 mm 3 mps 693 mmHg 16%
20:00 +27°C° 0 mm 2 mps 694 mmHg 19%
21:00 +26°C° 0 mm 2 mps 694 mmHg 27%
22:00 +24°C° 0 mm 1 mps 694 mmHg 35%
23:00 +23°C° 0 mm 1 mps 694 mmHg 44%

14 March, Sunday

Time Temperature Precipitation Wind Pressure Humidity
00:00 +23°C° 0 mm 1 mps 693 mmHg 47%
01:00 +23°C° 0 mm 1 mps 693 mmHg 50%
02:00 +22°C° 0 mm 1 mps 692 mmHg 52%
03:00 +22°C° 0 mm 1 mps 692 mmHg 54%
04:00 +22°C° 0 mm 1 mps 692 mmHg 55%
05:00 +21°C° 0 mm 2 mps 692 mmHg 57%
06:00 +23°C° 0 mm 2 mps 693 mmHg 53%
07:00 +25°C° 0 mm 2 mps 694 mmHg 50%
08:00 +27°C° 0 mm 2 mps 695 mmHg 46%
09:00 +29°C° 0 mm 3 mps 695 mmHg 37%
10:00 +31°C° 0 mm 3 mps 695 mmHg 28%
11:00 +35°C° 0 mm 4 mps 695 mmHg 18%
12:00 +36°C° 0 mm 4 mps 694 mmHg 17%
13:00 +36°C° 0 mm 4 mps 693 mmHg 16%
14:00 +37°C° 0 mm 4 mps 692 mmHg 14%
15:00 +37°C° 0 mm 4 mps 692 mmHg 14%
16:00 +36°C° 0 mm 3 mps 692 mmHg 14%
17:00 +36°C° 0 mm 3 mps 692 mmHg 14%
18:00 +34°C° 0 mm 3 mps 692 mmHg 16%
19:00 +31°C° 0 mm 2 mps 692 mmHg 18%
20:00 +29°C° 0 mm 2 mps 693 mmHg 20%
21:00 +28°C° 0 mm 2 mps 693 mmHg 26%
22:00 +27°C° 0 mm 2 mps 693 mmHg 31%
23:00 +25°C° 0 mm 2 mps 693 mmHg 37%
Show more

We Need Your Consent

Meteoprog and our Service Providers may store and access personal data such as cookies, device identifiers or other similar technologies on your device and process such data to personalise content and ads, as well as provide social media features and to analyse the traffic.

  • Store and/or access information on your device

    Cookies, device identifiers or other information can be stored or accessed on your device for the purposes indicated above.

  • Personalised ads and content, ad and content measurement, audience insights, and products development

    Ads and content can be personalised based on a profile. More data can be added to better personalise ads and content. Ad and content performance can be measured. Insights about the audience who saw the ads and content can be derived. Such data can be used to develop or improve user’s experience, systems and software.

By clicking ‘I Agree’ you will allow the use of indicated cookies, device identifiers, web beacons or other similar technologies. Your settings can be changed in the browser on your device.

For certain purposes, legitimate interests may be relied on, rather than consent. You can read more about this in our Privacy and Cookie Policy.